PROGRESS-MS 13 (44833 NORAD) Tracking and Keplerian Element Data

This shows tracking and keplerian element data for the satellite.

Feedback or suggestion? Click here.




ElementValue
Catalog44833
NamePROGRESS-MS 13
Epoch Orbit21917
Epoch Day86.34892434
Epoch Year2020
RAAN38.3487
Inclination51.6458
Eccentricity0.0004945
Argument of Perigee59.6701
Mean Anonmoly89.5107
Mean Motion15.48920206
Decay Rate1.263E-05
L11 44833U 19085A 20086.34892434 .00001263 00000-0 31189-4 0 9996
L22 44833 51.6458 38.3487 0004945 59.6701 89.5107 15.48920206219173

Live tracking and technical data element details for PROGRESS-MS 13 (NORAD 44833). PROGRESS-MS 13 can be tracked NOW for your location showing map with azimuth and elevation plus other details from your city location.

Track the satellite on the map from your city or location and see movement details for azimuth, elevation, latitude, longitude, range, height, and movement on the map or in text.







IsCatalogInMostPopularTable: catalog: 44833, numindb: 44
Update: records affected: 1



GetName: 44833 PROGRESS-MS 13

Hit Count: updated at: Sat, 28 Mar 2020 19:58:07 GMT